Weather History for KFMY - October, 2012

Change the Weather History Date:

Thursday, October 25, 2012

  Actual Average Record
Temperature  
Mean Temperature 78 °F 76 °F  
Max Temperature 83 °F 85 °F 91 °F (1996)
Min Temperature 73 °F 67 °F 50 °F (2006)
Degree Days  
Heating Degree Days 0 0  
Month to date heating degree days 0 0  
Since 1 July heating degree days 0 0  
Cooling Degree Days 13 11  
Month to date cooling degree days 386 339  
Year to date cooling degree days 4062 3585  
Growing Degree Days 28 (Base 50)    
Moisture  
Dew Point 70 °F    
Average Humidity 79    
Maximum Humidity 93    
Minimum Humidity 65    
Precipitation  
Precipitation 0.03 in 0.08 in 3.30 in (1921)
Month to date precipitation 4.93 2.46  
Year to date precipitation 46.77 51.84  
Sea Level Pressure  
Sea Level Pressure 29.80 in    
Wind  
Wind Speed 11 mph (NE)    
Max Wind Speed 21 mph    
Max Gust Speed 29 mph    
Visibility 10 miles    
Events      
T = Trace of Precipitation, MM = Missing Value Source: NWS Daily Summary

Daily Weather History Graph

Daily Weather History Graph

Search for Another Location

Airport or City:

Trip Planner

Search our weather history database for the weather conditions in past years. The results will help you decide how hot, cold, wet, or windy it might be!

Date:

Astronomy

Oct. 25, 2012 Rise Set
Actual Time 7:32 AM EDT 6:49 PM EDT
Civil Twilight 7:09 AM EDT 7:13 PM EDT
Nautical Twilight 6:41 AM EDT 7:40 PM EDT
Astronomical Twilight 6:14 AM EDT 8:07 PM EDT
Moon 4:18 PM EDT (10/25) 3:48 AM EDT (10/25)
Length of Visible Light 12h 04m
Length of Day
11h 17m
Waxing Gibbous, 84% of the Moon is Illuminated
Oct 25
Waxing Gibbous
Oct 29
Full
Nov 6
Last Quarter
Nov 13
New
Nov 20
First Quarter

Hourly Weather History & Observations

Time (EDT) Temp. Heat Index Dew Point Humidity Pressure Visibility Wind Dir Wind Speed Gust Speed Precip Events Conditions
12:53 AM 73.9 °F - 69.1 °F 85% 29.87 in 10.0 mi NE 8.1 mph - N/A   Clear
1:53 AM 73.9 °F - 68.0 °F 82% 29.85 in 10.0 mi NNE 9.2 mph - N/A   Clear
2:53 AM 73.0 °F - 68.0 °F 84% 29.83 in 10.0 mi NE 6.9 mph - N/A   Clear
3:53 AM 73.0 °F - 69.1 °F 87% 29.83 in 10.0 mi NE 10.4 mph - N/A   Partly Cloudy
4:53 AM 73.0 °F - 69.1 °F 87% 29.80 in 10.0 mi NNE 6.9 mph - N/A   Clear
5:53 AM 73.0 °F - 70.0 °F 90% 29.80 in 10.0 mi NNE 10.4 mph - N/A   Clear
6:53 AM 73.9 °F - 70.0 °F 87% 29.82 in 10.0 mi NE 9.2 mph - N/A   Clear
7:53 AM 73.9 °F - 71.1 °F 91% 29.83 in 10.0 mi NE 8.1 mph - N/A   Partly Cloudy
8:53 AM 75.9 °F - 71.1 °F 85% 29.84 in 10.0 mi NNE 9.2 mph - N/A   Clear
9:53 AM 78.1 °F - 71.1 °F 79% 29.84 in 10.0 mi NE 11.5 mph - N/A   Clear
10:53 AM 81.0 °F 84.9 °F 71.1 °F 72% 29.84 in 10.0 mi NE 11.5 mph - N/A   Scattered Clouds
11:53 AM 82.0 °F 85.5 °F 69.1 °F 65% 29.82 in 10.0 mi ENE 18.4 mph 25.3 mph N/A   Clear
12:53 PM 82.0 °F 85.5 °F 69.1 °F 65% 29.80 in 10.0 mi ENE 12.7 mph 25.3 mph N/A   Partly Cloudy
1:53 PM 82.0 °F 85.9 °F 70.0 °F 67% 29.77 in 10.0 mi NE 16.1 mph - N/A   Clear
2:53 PM 81.0 °F 84.1 °F 69.1 °F 67% 29.76 in 10.0 mi NE 15.0 mph 25.3 mph N/A   Partly Cloudy
3:53 PM 81.0 °F 84.1 °F 69.1 °F 67% 29.75 in 10.0 mi NNE 17.3 mph 23.0 mph N/A   Clear
4:53 PM 81.0 °F 84.4 °F 70.0 °F 69% 29.75 in 10.0 mi NE 16.1 mph 20.7 mph N/A   Scattered Clouds
5:53 PM 80.1 °F 83.2 °F 70.0 °F 71% 29.75 in 10.0 mi NE 13.8 mph 25.3 mph N/A   Clear
6:53 PM 77.0 °F - 72.0 °F 84% 29.77 in 10.0 mi ENE 8.1 mph - 0.03 in   Mostly Cloudy
7:53 PM 75.9 °F - 72.0 °F 87% 29.78 in 10.0 mi NNE 8.1 mph - N/A   Partly Cloudy
9:53 PM 75.9 °F - 71.1 °F 85% 29.78 in 10.0 mi North 11.5 mph 18.4 mph N/A   Scattered Clouds
10:53 PM 75.9 °F - 70.0 °F 82% 29.78 in 10.0 mi North 11.5 mph - N/A   Overcast
11:53 PM 75.0 °F - 70.0 °F 84% 29.76 in 10.0 mi North 9.2 mph - N/A   Overcast